TimeEST,TemperatureF,Dew PointF,Humidity,Sea Level PressureIn,VisibilityMPH,Wind Direction,Wind SpeedMPH,Gust SpeedMPH,PrecipitationIn,Events,Conditions,WindDirDegrees,DateUTC
12:52 AM,24.1,21.9,91,30.03,5.0,Calm,Calm,-,N/A,,Clear,0,2013-01-07 05:52:00
1:52 AM,21.0,19.9,96,30.04,4.0,Calm,Calm,-,N/A,,Clear,0,2013-01-07 06:52:00
3:52 AM,19.0,17.1,92,30.07,5.0,Calm,Calm,-,N/A,,Clear,0,2013-01-07 08:52:00
4:52 AM,18.0,15.1,88,30.09,6.0,Calm,Calm,-,N/A,,Clear,0,2013-01-07 09:52:00
5:52 AM,19.9,18.0,92,30.12,6.0,ENE,3.5,-,N/A,,Clear,60,2013-01-07 10:52:00
6:52 AM,19.9,17.1,89,30.16,6.0,Calm,Calm,-,N/A,,Mostly Cloudy,0,2013-01-07 11:52:00
7:52 AM,19.0,17.1,92,30.19,5.0,Calm,Calm,-,N/A,,Clear,0,2013-01-07 12:52:00
8:52 AM,24.1,21.0,88,30.22,5.0,Calm,Calm,-,N/A,,Clear,0,2013-01-07 13:52:00
9:52 AM,39.0,26.1,60,30.26,10.0,NW,8.1,-,N/A,,Mostly Cloudy,320,2013-01-07 14:52:00
10:52 AM,39.9,25.0,55,30.27,10.0,NNW,11.5,19.6,N/A,,Partly Cloudy,330,2013-01-07 15:52:00
11:52 AM,39.9,23.0,51,30.28,10.0,NNW,11.5,-,N/A,,Partly Cloudy,330,2013-01-07 16:52:00
12:52 PM,39.9,21.9,49,30.29,10.0,North,8.1,-,N/A,,Clear,350,2013-01-07 17:52:00
1:52 PM,41.0,21.0,45,30.32,10.0,NNW,6.9,-,N/A,,Clear,340,2013-01-07 18:52:00
2:52 PM,39.9,21.0,47,30.35,10.0,West,6.9,-,N/A,,Clear,280,2013-01-07 19:52:00
3:52 PM,39.0,19.9,46,30.36,10.0,WNW,4.6,-,N/A,,Clear,300,2013-01-07 20:52:00
4:52 PM,37.0,19.9,50,30.39,10.0,Calm,Calm,-,N/A,,Clear,0,2013-01-07 21:52:00
5:52 PM,30.9,21.0,67,30.40,10.0,Calm,Calm,-,N/A,,Clear,0,2013-01-07 22:52:00
6:52 PM,26.1,21.0,81,30.41,10.0,Calm,Calm,-,N/A,,Clear,0,2013-01-07 23:52:00
7:52 PM,24.1,19.9,84,30.41,10.0,Calm,Calm,-,N/A,,Clear,0,2013-01-08 00:52:00
8:52 PM,21.9,19.0,89,30.40,10.0,Calm,Calm,-,N/A,,Clear,0,2013-01-08 01:52:00
9:52 PM,21.0,19.0,92,30.40,10.0,Calm,Calm,-,N/A,,Clear,0,2013-01-08 02:52:00
10:52 PM,19.9,18.0,92,30.40,8.0,Calm,Calm,-,N/A,,Clear,0,2013-01-08 03:52:00
11:52 PM,18.0,16.0,92,30.39,8.0,NE,3.5,-,N/A,,Clear,40,2013-01-08 04:52:00